Location: Saluda
(35.2377°N, 82.3468°W)
Time: 14:41:23
(UTC+00:00)

SR - Pass Details

Date: 08 October 2022
Orbit: 577 x 875 km, 66.7° (Epoch: 28 November)

Event Time Altitude Azimuth Distance (km) Brightness Sun altitude
Rises 09:29:06 0° 341° (NNW) 3,284 ? -25.4°
Reaches altitude 10° 09:31:50 10° 351° (N) 2,301 ? -24.8°
Maximum altitude 09:36:33 33° 55° (NE) 1,194 ? -23.9°
Drops below altitude 10° 09:40:54 10° 120° (ESE) 2,110 ? -23.0°
Sets 09:43:18 0° 130° (SE) 2,972 ? -22.5°
